ZSHLZ FAPE-FAPE

Flight info

Callsign ZSHLZ
Flight time 0h 37m
Altitude 1000
Route FAPE DCT SEAVIEW SCT MAITLANDS DCT SEAVIEW DCT FAPE
Aircraft UH1/L-VGD/C

Departure

Time 2026-04-27 07:58
Airport Chief Dawid Stuurman International Airport (FAPE)

Arrival

Time 2026-04-27 08:36
Airport Chief Dawid Stuurman International Airport (FAPE)
Time Latitude Longitude Altitude Speed Heading
2026-04-27 07:40 -33.98002 25.62155 191 ft 0 kts 349°
2026-04-27 07:50 -33.97988 25.62165 227 ft 3 kts 253°
2026-04-27 07:50 -33.98047 25.62152 270 ft 18 kts 222°
2026-04-27 07:50 -33.98146 25.62057 252 ft 27 kts 262°
2026-04-27 07:50 -33.98324 25.61944 219 ft 60 kts 182°
2026-04-27 07:51 -33.98441 25.61763 414 ft 55 kts 256°
2026-04-27 07:51 -33.98735 25.61216 392 ft 92 kts 240°
2026-04-27 07:51 -33.99097 25.60549 434 ft 95 kts 241°
2026-04-27 07:51 -33.99461 25.59892 520 ft 97 kts 237°
2026-04-27 07:52 -33.99911 25.59290 529 ft 101 kts 234°
2026-04-27 07:52 -34.00342 25.58654 567 ft 96 kts 241°
2026-04-27 07:52 -34.00662 25.57980 626 ft 93 kts 245°
2026-04-27 07:52 -34.01089 25.57372 601 ft 98 kts 231°
2026-04-27 07:53 -34.01510 25.56721 578 ft 102 kts 239°
2026-04-27 07:53 -34.01913 25.56027 664 ft 100 kts 239°
2026-04-27 07:53 -34.02331 25.55343 674 ft 101 kts 243°
2026-04-27 07:53 -34.02602 25.54618 738 ft 94 kts 250°
2026-04-27 07:54 -34.02806 25.53865 705 ft 95 kts 252°
2026-04-27 07:54 -34.02964 25.53129 712 ft 90 kts 258°
2026-04-27 07:54 -34.03069 25.52373 641 ft 90 kts 257°
2026-04-27 07:54 -34.03080 25.51579 398 ft 99 kts 266°
2026-04-27 07:55 -34.03030 25.50822 325 ft 91 kts 273°
2026-04-27 07:55 -34.02922 25.50069 367 ft 92 kts 276°
2026-04-27 07:55 -34.02830 25.49309 302 ft 95 kts 273°
2026-04-27 07:55 -34.02749 25.48536 351 ft 93 kts 275°
2026-04-27 07:56 -34.02581 25.47800 438 ft 89 kts 275°
2026-04-27 07:56 -34.02693 25.47068 466 ft 93 kts 256°
2026-04-27 07:56 -34.02833 25.46327 515 ft 90 kts 262°
2026-04-27 07:56 -34.02874 25.45582 512 ft 90 kts 265°
2026-04-27 07:57 -34.02851 25.44784 427 ft 93 kts 269°
2026-04-27 07:57 -34.02814 25.44012 409 ft 93 kts 268°
2026-04-27 07:57 -34.02803 25.43275 521 ft 87 kts 263°
2026-04-27 07:57 -34.02784 25.42553 623 ft 88 kts 269°
2026-04-27 07:58 -34.02677 25.41799 679 ft 90 kts 275°
2026-04-27 07:58 -34.02517 25.41093 725 ft 85 kts 277°
2026-04-27 07:58 -34.02298 25.40488 919 ft 82 kts 285°
2026-04-27 07:58 -34.01959 25.39960 1215 ft 78 kts 296°
2026-04-27 07:59 -34.01633 25.39441 1271 ft 85 kts 276°
2026-04-27 07:59 -34.01823 25.38272 461 ft 56 kts 252°
2026-04-27 07:59 -34.01900 25.37923 364 ft 44 kts 264°
2026-04-27 08:00 -34.01781 25.37322 286 ft 88 kts 269°
2026-04-27 08:00 -34.01686 25.36586 284 ft 85 kts 269°
2026-04-27 08:00 -34.01781 25.36115 300 ft 41 kts 268°
2026-04-27 08:00 -34.01583 25.35624 306 ft 62 kts 271°
2026-04-27 08:01 -34.01483 25.35309 254 ft 31 kts 285°
2026-04-27 08:01 -34.01263 25.35127 175 ft 28 kts 288°
2026-04-27 08:01 -34.01235 25.35046 46 ft 2 kts 274°
2026-04-27 08:01 -34.01235 25.35045 41 ft 0 kts 275°
2026-04-27 08:14 -34.01215 25.34998 113 ft 27 kts 279°
2026-04-27 08:14 -34.01072 25.34595 199 ft 77 kts 286°
2026-04-27 08:14 -34.00898 25.34002 269 ft 69 kts 275°
2026-04-27 08:15 -34.00656 25.33535 315 ft 67 kts 287°
2026-04-27 08:15 -34.00441 25.33054 319 ft 64 kts 274°
2026-04-27 08:15 -34.00361 25.32556 267 ft 68 kts 278°
2026-04-27 08:15 -34.00033 25.31997 225 ft 87 kts 291°
2026-04-27 08:16 -33.99741 25.31358 255 ft 88 kts 285°
2026-04-27 08:16 -33.99436 25.30676 188 ft 95 kts 287°
2026-04-27 08:16 -33.99261 25.30068 302 ft 51 kts 272°
2026-04-27 08:16 -33.99176 25.29796 461 ft 38 kts 277°
2026-04-27 08:17 -33.99037 25.29353 249 ft 62 kts 277°
2026-04-27 08:17 -33.98865 25.28905 238 ft 50 kts 288°
2026-04-27 08:17 -33.98434 25.29044 248 ft 102 kts 52°
2026-04-27 08:17 -33.98564 25.29411 425 ft 31 kts 254°
2026-04-27 08:18 -33.98513 25.28996 388 ft 70 kts 275°
2026-04-27 08:18 -33.98316 25.28343 558 ft 81 kts 245°
2026-04-27 08:18 -33.98761 25.28799 289 ft 117 kts 92°
2026-04-27 08:18 -33.98577 25.29069 161 ft 19 kts 258°
2026-04-27 08:19 -33.98676 25.28889 37 ft 14 kts 248°
2026-04-27 08:19 -33.98685 25.28869 15 ft 0 kts 252°
2026-04-27 08:20 -33.98683 25.28867 35 ft 1 kts 249°
2026-04-27 08:20 -33.98769 25.29027 128 ft 57 kts 140°
2026-04-27 08:21 -33.99038 25.29698 277 ft 105 kts 120°
2026-04-27 08:21 -33.99371 25.30593 340 ft 127 kts 122°
2026-04-27 08:21 -33.99704 25.31515 272 ft 104 kts 126°
2026-04-27 08:21 -34.00042 25.32098 276 ft 72 kts 153°
2026-04-27 08:22 -34.00367 25.32581 304 ft 82 kts 128°
2026-04-27 08:22 -34.00607 25.33258 236 ft 92 kts 115°
2026-04-27 08:22 -34.00916 25.33957 261 ft 103 kts 130°
2026-04-27 08:22 -34.01289 25.34775 278 ft 116 kts 124°
2026-04-27 08:23 -34.01613 25.35674 327 ft 121 kts 112°
2026-04-27 08:23 -34.01673 25.36552 582 ft 76 kts 21°
2026-04-27 08:23 -34.01363 25.36406 451 ft 55 kts 253°
2026-04-27 08:23 -34.01758 25.36701 372 ft 122 kts 107°
2026-04-27 08:24 -34.01816 25.37719 411 ft 125 kts 74°
2026-04-27 08:24 -34.02087 25.38137 516 ft 61 kts 226°
2026-04-27 08:24 -34.02121 25.37637 428 ft 69 kts 275°
2026-04-27 08:24 -34.01904 25.37865 428 ft 114 kts 135°
2026-04-27 08:25 -34.02405 25.38588 439 ft 123 kts 131°
2026-04-27 08:25 -34.02186 25.39218 473 ft 64 kts 293°
2026-04-27 08:25 -34.02197 25.38737 492 ft 58 kts 253°
2026-04-27 08:25 -34.02222 25.38222 508 ft 68 kts 270°
2026-04-27 08:26 -34.02085 25.37632 440 ft 62 kts 279°
2026-04-27 08:26 -34.01788 25.38030 584 ft 98 kts 132°
2026-04-27 08:26 -34.02027 25.38120 726 ft 34 kts 239°
2026-04-27 08:26 -34.02172 25.37774 592 ft 47 kts 262°
2026-04-27 08:27 -34.02100 25.37369 553 ft 58 kts 275°
2026-04-27 08:27 -34.02211 25.36863 551 ft 102 kts 190°
2026-04-27 08:27 -34.02219 25.37442 367 ft 63 kts 346°
2026-04-27 08:27 -34.01892 25.37657 507 ft 59 kts 76°
2026-04-27 08:28 -34.02076 25.38301 360 ft 86 kts 130°
2026-04-27 08:28 -34.02319 25.38712 384 ft 97 kts 149°
2026-04-27 08:28 -34.02883 25.39360 274 ft 127 kts 138°
2026-04-27 08:28 -34.03238 25.40369 293 ft 133 kts 99°
2026-04-27 08:29 -34.03274 25.41466 356 ft 128 kts 90°
2026-04-27 08:29 -34.03315 25.42518 461 ft 126 kts 91°
2026-04-27 08:29 -34.03390 25.43582 568 ft 125 kts 102°
2026-04-27 08:29 -34.03548 25.44660 485 ft 140 kts 99°
2026-04-27 08:30 -34.03643 25.45821 444 ft 138 kts 87°
2026-04-27 08:30 -34.03606 25.47008 359 ft 144 kts 79°
2026-04-27 08:30 -34.03450 25.48161 396 ft 132 kts 77°
2026-04-27 08:30 -34.03469 25.49309 377 ft 139 kts 95°
2026-04-27 08:31 -34.03207 25.49913 769 ft 63 kts 303°
2026-04-27 08:31 -34.03057 25.49333 728 ft 72 kts 241°
2026-04-27 08:31 -34.03516 25.49793 632 ft 137 kts 95°
2026-04-27 08:31 -34.03606 25.50919 529 ft 133 kts 105°
2026-04-27 08:32 -34.03874 25.51943 700 ft 123 kts 121°
2026-04-27 08:32 -34.04197 25.52821 989 ft 115 kts 123°
2026-04-27 08:32 -34.04429 25.53766 1204 ft 125 kts 121°
2026-04-27 08:32 -34.04634 25.54850 1296 ft 137 kts 103°
2026-04-27 08:33 -34.04677 25.56016 1414 ft 141 kts 93°
2026-04-27 08:33 -34.04691 25.57232 1290 ft 149 kts 86°
2026-04-27 08:33 -34.04522 25.58430 844 ft 135 kts 68°
2026-04-27 08:33 -34.04262 25.59434 738 ft 120 kts 59°
2026-04-27 08:34 -34.03956 25.60346 566 ft 120 kts 61°
2026-04-27 08:34 -34.03636 25.61270 655 ft 117 kts 57°
2026-04-27 08:34 -34.03303 25.62166 759 ft 117 kts 47°
2026-04-27 08:34 -34.02749 25.62875 758 ft 118 kts 15°
2026-04-27 08:35 -34.02029 25.63325 667 ft 115 kts
2026-04-27 08:35 -34.01319 25.63559 639 ft 100 kts 348°
2026-04-27 08:35 -34.00677 25.63535 591 ft 83 kts 321°
2026-04-27 08:35 -34.00266 25.63219 520 ft 63 kts 296°
2026-04-27 08:36 -33.99943 25.62914 434 ft 56 kts 302°
2026-04-27 08:36 -33.99666 25.62679 303 ft 40 kts 300°
2026-04-27 08:36 -33.99465 25.62527 258 ft 33 kts 300°
2026-04-27 08:36 -33.99322 25.62409 252 ft 25 kts 296°
2026-04-27 08:37 -33.99111 25.62240 287 ft 43 kts 300°
2026-04-27 08:37 -33.98884 25.62049 279 ft 33 kts 295°
2026-04-27 08:37 -33.98713 25.61904 266 ft 29 kts 298°
2026-04-27 08:37 -33.98548 25.61770 260 ft 29 kts 297°
2026-04-27 08:38 -33.98415 25.61672 268 ft 16 kts 292°
2026-04-27 08:38 -33.98277 25.61761 271 ft 40 kts 28°
2026-04-27 08:38 -33.98187 25.61972 223 ft 22 kts 31°
2026-04-27 08:38 -33.98131 25.62150 284 ft 26 kts 45°
2026-04-27 08:39 -33.98024 25.62369 304 ft 27 kts 314°
2026-04-27 08:39 -33.98019 25.62249 268 ft 14 kts 238°
2026-04-27 08:39 -33.98037 25.62214 192 ft 0 kts 235°